Probability
13 26 68 68 68 68 61 55 48 45 48 39 39 35 35 32 35 32 32 29 35 32 32 32 32 19 19 23 19 23 19 13 10 13 16 13 13 6 3 3 3 3 6
16 35 68 68 68 58 55 55 48 45 45 45 42 42 32 29 29 29 32 29 23 23 26 29 26 26 19 19 13 13 16 13 6 6 6 6 3 3 3 6 6 0 3
13 35 52 61 61 61 58 58 55 45 45 45 42 39 32 29 29 29 23 19 23 23 26 26 19 16 13 10 10 10 10 6 0 0 0 0 0 3 3 3 6 3 3
26 39 42 58 61 61 58 55 52 48 45 42 35 35 32 32 32 23 23 19 19 19 19 16 13 13 13 10 6 6 3 3 0 0 0 0 0 3 0 0 3 3 0
29 39 45 55 52 58 52 52 48 42 42 42 39 39 35 39 32 19 19 16 16 13 13 10 10 6 10 10 3 3 6 0 0 0 0 0 0 3 0 0 0 0 0
29 39 45 52 52 52 48 48 45 39 39 35 35 35 35 39 29 19 13 16 13 13 10 10 10 6 3 3 0 0 0 0 0 0 0 0 0 0 0 3 3 0 0
32 39 45 55 48 48 48 45 45 42 35 35 35 35 39 32 26 19 16 13 13 13 6 3 3 6 6 3 0 0 0 0 0 0 0 0 0 0 0 0 0 3 3
35 42 45 52 52 48 48 48 48 42 39 32 32 32 29 26 19 16 13 13 10 3 3 3 3 0 3 0 0 0 0 0 0 0 0 0 0 0 0 0 0 0 0
42 45 42 42 42 48 48 45 45 35 35 35 35 35 32 26 19 19 19 10 6 3 3 3 0 0 0 0 0 0 0 0 0 0 0 0 0 0 0 0 3 0 0
42 42 42 39 42 42 39 35 35 35 35 39 35 26 23 16 16 13 6 6 3 3 3 3 0 0 0 0 0 0 0 0 0 0 0 0 0 0 0 0 3 0 0
35 39 35 39 35 35 35 32 32 32 29 26 19 10 3 3 3 3 3 3 3 3 3 3 0 0 0 0 0 0 0 0 0 0 0 0 0 3 3 0 0 0 0
26 35 29 32 26 26 29 19 13 16 10 6 3 3 3 0 0 0 0 0 0 0 0 0 0 0 0 0 0 0 0 0 0 0 0 0 0 3 3 0 0 0 0
23 26 23 23 16 23 16 10 10 6 3 3 3 3 3 0 0 0 0 0 0 0 0 0 0 0 0 0 0 0 0 0 0 0 0 0 0 3 0 0 0 0 0
19 19 16 16 16 13 10 10 6 3 0 0 0 0 0 0 0 0 0 0 0 0 0 0 0 0 0 0 0 0 0 0 0 0 0 0 0 0 0 0 0 0 0
16 16 16 16 13 6 6 6 6 0 0 0 0 0 0 0 0 0 0 0 0 0 0 0 0 0 0 0 0 0 0 0 0 0 0 0 0 0 0 0 0 0 0
16 16 16 13 6 3 3 3 0 0 0 0 0 0 0 0 0 0 0 0 0 0 0 0 0 0 0 0 0 0 0 0 0 0 0 0 0 0 0 0 0 0 0
13 16 16 10 3 3 0 0 0 0 0 0 0 0 0 0 0 0 0 0 0 0 0 0 0 0 0 0 0 0 0 0 0 0 0 0 0 0 0 0 0 0 0
13 13 10 6 6 0 0 0 0 0 0 0 0 0 0 0 0 0 0 0 0 0 0 0 0 0 0 0 0 0 0 0 0 0 0 0 0 0 0 0 0 0 0
10 3 6 3 3 0 0 0 0 0 0 0 0 0 0 0 0 0 0 0 0 0 0 0 0 0 0 0 0 0 0 0 0 0 0 0 0 0 0 0 0 0 0
3 6 6 0 0 0 0 0 0 0 0 0 0 0 0 0 0 0 0 0 0 0 0 0 0 0 0 0 0 0 0 0 0 0 0 0 0 0 0 0 0 0 0
6 3 3 3 0 0 0 0 0 0 0 0 0 0 0 0 0 0 0 0 0 0 0 0 0 0 0 0 0 0 0 0 0 0 0 0 0 0 0 0 0 0 0
3 6 6 3 3 0 0 0 0 0 0 0 0 0 0 0 0 0 0 0 0 0 0 0 0 0 0 0 0 0 0 0 0 0 0 0 0 0 0 0 0 0 0
3 3 3 3 3 3 0 0 0 0 0 0 0 0 0 0 0 0 0 0 0 0 0 0 0 0 0 0 0 0 0 0 0 0 0 0 0 0 0 0 0 0 0
3 3 3 3 3 3 0 0 0 0 0 0 0 0 0 0 0 0 0 0 0 0 0 0 0 0 0 0 0 0 0 0 0 0 0 0 0 0 0 0 0 0 0
3 3 3 3 3 0 0 0 0 0 0 0 0 0 0 0 0 0 0 0 0 0 0 0 0 0 0 0 0 0 0 0 0 0 0 0 0 0 0 0 0 0 0
3 3 3 3 0 0 0 0 0 0 0 0 0 0 0 0 0 0 0 0 0 0 0 0 0 0 0 0 0 0 0 0 0 0 0 0 0 0 0 0 0 0 0
Height
5859 5860 5862 5863 5864 5865 5866 5868 5868 5869 5870 5871 5871 5872 5872 5873 5873 5874 5874 5874 5875 5875 5875 5875 5874 5874 5874 5873 5873 5873 5872 5872 5871 5870 5869 5869 5868 5867 5866 5865 5864 5863 5862
5857 5858 5860 5861 5862 5863 5865 5866 5867 5868 5868 5869 5870 5870 5871 5871 5872 5873 5873 5873 5873 5873 5873 5873 5873 5873 5872 5872 5871 5871 5870 5870 5869 5868 5868 5867 5866 5865 5864 5863 5862 5860 5859
5854 5856 5857 5858 5860 5861 5862 5864 5865 5866 5866 5867 5868 5868 5869 5870 5870 5871 5871 5871 5872 5872 5871 5871 5871 5871 5871 5870 5870 5869 5868 5868 5867 5866 5865 5864 5863 5862 5861 5860 5859 5858 5856
5851 5852 5854 5856 5857 5858 5860 5861 5862 5863 5864 5865 5866 5866 5867 5868 5868 5869 5869 5870 5870 5870 5869 5869 5869 5869 5868 5868 5868 5867 5866 5866 5865 5864 5863 5862 5861 5860 5859 5857 5856 5855 5853
5848 5849 5851 5852 5854 5855 5857 5858 5859 5861 5862 5863 5863 5864 5865 5866 5866 5867 5867 5867 5868 5868 5867 5867 5867 5866 5866 5866 5865 5864 5864 5863 5862 5861 5860 5859 5858 5857 5856 5854 5853 5851 5850
5843 5845 5847 5849 5850 5852 5853 5855 5856 5858 5859 5860 5861 5862 5863 5863 5864 5864 5865 5865 5865 5865 5865 5865 5864 5864 5864 5863 5862 5862 5861 5860 5860 5859 5858 5857 5856 5854 5853 5851 5850 5848 5846
5839 5841 5843 5845 5847 5848 5850 5852 5853 5854 5856 5857 5858 5859 5860 5860 5861 5862 5862 5862 5862 5862 5862 5862 5862 5861 5861 5860 5860 5859 5858 5857 5857 5856 5855 5854 5852 5851 5849 5848 5846 5844 5843
5834 5836 5838 5841 5843 5844 5846 5848 5849 5851 5852 5853 5855 5855 5856 5857 5858 5859 5859 5859 5859 5859 5859 5859 5859 5858 5858 5857 5857 5856 5855 5854 5853 5852 5851 5850 5849 5847 5846 5844 5842 5840 5838
5828 5831 5833 5836 5838 5840 5842 5844 5845 5847 5848 5850 5851 5852 5853 5854 5854 5855 5856 5856 5856 5856 5856 5856 5855 5855 5854 5854 5853 5852 5851 5851 5850 5849 5847 5846 5845 5843 5841 5839 5838 5836 5834
5822 5825 5828 5830 5833 5835 5837 5839 5841 5842 5844 5845 5847 5848 5849 5850 5850 5851 5852 5852 5852 5852 5852 5852 5851 5851 5850 5850 5849 5848 5848 5847 5846 5845 5843 5842 5840 5839 5837 5835 5833 5831 5829
5816 5819 5822 5825 5827 5829 5832 5834 5836 5837 5839 5840 5842 5843 5844 5845 5846 5847 5847 5848 5848 5848 5848 5848 5847 5847 5846 5846 5845 5844 5844 5843 5842 5840 5839 5837 5836 5834 5832 5830 5828 5826 5824
5810 5813 5816 5819 5821 5824 5826 5828 5830 5832 5834 5835 5837 5838 5839 5841 5841 5842 5843 5843 5843 5843 5843 5843 5843 5842 5842 5841 5841 5840 5839 5838 5837 5836 5834 5832 5830 5829 5827 5824 5822 5820 5818
5802 5806 5809 5812 5815 5817 5820 5822 5824 5826 5828 5830 5831 5833 5834 5835 5836 5837 5838 5838 5838 5839 5839 5838 5838 5838 5837 5837 5836 5835 5834 5833 5832 5830 5829 5827 5825 5823 5821 5819 5816 5814 5812
5795 5798 5801 5804 5807 5810 5813 5815 5817 5820 5822 5823 5825 5827 5828 5830 5831 5832 5832 5833 5833 5833 5833 5833 5833 5832 5832 5832 5831 5830 5829 5828 5827 5825 5824 5822 5820 5817 5815 5813 5810 5808 5805
5787 5790 5794 5797 5800 5803 5806 5808 5810 5813 5815 5817 5819 5820 5822 5823 5825 5826 5827 5827 5828 5828 5828 5828 5827 5827 5827 5826 5826 5825 5824 5823 5821 5820 5818 5816 5814 5811 5809 5807 5804 5801 5798
5778 5782 5786 5789 5792 5795 5798 5801 5803 5806 5808 5810 5812 5813 5815 5817 5818 5819 5820 5821 5822 5822 5822 5822 5822 5821 5821 5821 5820 5819 5818 5817 5815 5814 5812 5810 5807 5805 5802 5800 5797 5794 5790
5770 5773 5777 5781 5784 5787 5790 5793 5796 5798 5801 5803 5805 5806 5808 5810 5811 5813 5814 5814 5815 5815 5816 5816 5816 5815 5815 5815 5814 5813 5812 5810 5809 5807 5805 5803 5801 5798 5795 5792 5789 5786 5783
5761 5765 5769 5772 5775 5779 5782 5785 5788 5790 5793 5795 5797 5799 5801 5802 5804 5805 5807 5807 5808 5809 5809 5809 5809 5809 5809 5808 5807 5806 5805 5804 5802 5800 5798 5796 5794 5791 5788 5785 5782 5778 5775
5751 5756 5760 5763 5767 5770 5774 5776 5779 5782 5785 5787 5789 5791 5793 5795 5796 5798 5799 5800 5801 5802 5802 5803 5803 5803 5802 5802 5801 5800 5798 5797 5795 5793 5791 5788 5786 5783 5781 5778 5774 5770 5766
5742 5746 5750 5754 5758 5761 5765 5767 5770 5773 5776 5779 5781 5783 5785 5787 5789 5790 5792 5792 5793 5794 5795 5795 5796 5796 5795 5795 5794 5792 5791 5790 5788 5786 5783 5781 5778 5776 5773 5770 5766 5762 5758
5732 5736 5741 5745 5749 5752 5755 5759 5762 5765 5768 5770 5772 5774 5776 5778 5780 5782 5784 5785 5786 5787 5787 5788 5788 5788 5788 5787 5787 5785 5784 5782 5780 5778 5776 5773 5770 5768 5765 5761 5757 5754 5750
5723 5727 5731 5735 5739 5743 5746 5750 5753 5756 5759 5761 5763 5766 5768 5770 5772 5774 5775 5777 5778 5779 5780 5780 5780 5780 5780 5780 5779 5778 5777 5775 5773 5770 5768 5765 5762 5759 5756 5752 5749 5745 5741
5714 5718 5722 5726 5730 5733 5737 5740 5743 5746 5749 5752 5755 5757 5759 5761 5763 5765 5767 5768 5770 5771 5771 5772 5772 5772 5772 5771 5771 5770 5768 5767 5765 5763 5760 5757 5754 5751 5747 5744 5740 5736 5732
5704 5708 5712 5715 5719 5723 5727 5730 5734 5737 5740 5743 5746 5748 5750 5752 5754 5756 5758 5759 5761 5762 5763 5764 5764 5764 5763 5763 5762 5761 5760 5758 5757 5755 5753 5749 5746 5743 5739 5735 5731 5727 5723
5693 5697 5701 5705 5709 5713 5717 5720 5723 5727 5730 5733 5736 5738 5740 5743 5745 5747 5749 5750 5752 5753 5754 5755 5755 5755 5755 5755 5754 5752 5751 5749 5747 5746 5744 5742 5738 5734 5731 5727 5723 5719 5715
5683 5687 5691 5695 5699 5702 5706 5710 5713 5716 5719 5723 5726 5728 5731 5734 5736 5738 5740 5742 5743 5744 5745 5746 5746 5746 5746 5746 5745 5743 5742 5741 5739 5737 5736 5733 5730 5726 5722 5718 5714 5710 5706
Wind_Speed
14 13 12 11 11 10 9 8 8 7 7 7 7 6 6 6 5 5 5 6 6 7 8 9 9 9 9 9 9 10 10 11 11 11 12 12 13 14 14 14 15 15 16
16 15 14 13 12 12 11 10 10 9 8 8 8 8 7 7 7 7 7 7 8 8 9 9 10 10 10 10 10 10 11 12 12 13 13 14 14 15 15 15 16 17 18
18 17 16 15 15 14 13 13 12 11 10 10 9 9 9 8 8 8 8 8 9 9 10 10 10 10 10 11 11 11 12 12 13 13 14 15 15 16 16 17 17 18 19
20 19 18 17 17 16 15 15 14 13 12 12 11 10 10 9 9 9 10 10 10 10 10 11 11 11 11 12 12 12 12 13 14 14 15 16 16 16 17 17 18 19 20
22 21 20 19 18 18 17 17 16 15 14 13 13 12 11 11 11 11 11 11 11 11 11 12 12 12 13 13 13 13 14 14 14 15 16 16 16 17 18 18 19 20 21
24 23 22 21 20 20 19 18 17 16 16 15 14 14 13 13 12 12 12 12 12 12 12 13 13 13 14 14 14 15 15 15 16 16 17 17 17 18 19 20 21 21 22
26 25 24 22 22 21 21 20 19 18 17 16 16 15 15 14 14 14 14 14 14 14 14 14 15 15 15 15 16 16 16 17 17 18 18 19 19 20 21 22 22 23 23
28 27 26 24 24 23 22 22 21 20 19 18 18 17 16 16 15 15 15 15 15 15 15 16 16 17 17 17 17 17 18 18 18 19 20 20 21 22 23 23 24 24 24
30 29 28 27 26 25 25 24 23 22 21 20 20 19 18 18 17 17 17 17 17 17 17 17 18 18 18 18 18 19 19 19 20 20 21 22 23 24 24 25 25 26 26
32 31 30 29 29 28 27 26 25 24 23 23 22 21 20 20 19 19 19 18 19 19 19 19 19 19 19 20 20 20 20 21 21 22 23 23 24 25 26 26 27 27 28
34 33 32 31 31 30 29 28 27 26 26 25 24 24 23 22 21 21 20 20 20 20 21 21 21 21 21 21 21 22 22 22 23 23 24 25 26 27 28 28 28 29 30
35 34 34 34 33 32 31 30 29 28 27 27 26 26 25 24 23 23 22 22 22 22 22 22 22 22 22 22 23 23 23 24 24 25 26 27 27 28 29 29 30 30 31
38 37 36 35 34 33 33 32 31 30 29 29 28 27 27 26 25 24 24 24 24 24 24 24 24 23 23 24 24 24 25 25 26 26 27 28 28 29 30 30 31 31 32
40 39 38 37 36 35 34 34 33 32 31 31 30 30 29 28 27 26 26 26 25 25 25 25 25 25 25 25 25 25 26 27 27 28 28 29 29 30 31 32 32 33 34
41 41 40 39 38 37 36 35 35 34 33 32 32 31 31 30 29 28 28 28 27 27 26 26 26 26 26 26 27 27 27 28 28 29 30 30 31 32 32 33 34 35 35
43 43 42 40 39 39 38 37 36 35 34 34 33 33 32 31 31 30 30 30 29 28 28 28 27 27 27 28 28 28 28 29 30 30 31 32 32 33 34 35 35 36 36
45 44 43 42 41 40 39 38 37 36 35 35 34 34 34 34 33 32 32 31 31 30 29 29 29 29 29 29 30 30 30 30 31 32 33 33 34 34 35 36 36 36 37
45 45 44 43 43 41 40 39 38 37 37 36 36 35 35 35 35 34 33 33 32 32 31 30 30 30 30 31 31 30 31 31 32 33 34 35 35 36 36 36 37 38 39
46 45 45 44 43 43 41 40 40 39 38 38 37 36 36 36 35 35 35 35 34 33 32 32 32 32 32 32 32 32 32 33 33 34 34 35 36 36 36 37 38 39 40
46 46 45 44 44 44 43 42 40 40 40 39 39 38 38 38 36 35 35 35 35 34 34 34 34 34 34 34 34 34 34 34 35 35 36 36 36 37 37 38 39 40 41
46 46 45 45 44 44 44 44 42 41 41 40 40 40 39 38 37 36 36 36 35 35 35 35 35 35 34 35 35 36 36 36 36 36 36 37 37 38 39 40 40 41 41
45 46 45 45 45 45 44 44 43 43 43 41 41 40 40 39 38 37 36 35 35 36 36 35 36 36 36 36 36 36 36 36 37 37 37 38 38 39 40 41 41 41 41
46 45 45 45 45 45 45 45 45 45 44 42 41 40 40 40 39 38 37 36 36 36 36 36 36 36 37 37 37 37 37 37 37 37 38 39 39 40 40 40 41 42 42
46 46 46 47 46 45 45 45 45 45 44 44 43 41 40 40 39 39 38 37 37 37 37 37 37 37 37 37 37 38 38 39 38 38 38 39 39 40 41 41 42 42 42
46 47 47 47 48 47 46 45 45 45 45 44 45 44 42 39 38 38 38 38 38 39 39 38 37 38 38 38 38 38 38 38 39 38 38 38 39 40 41 42 42 42 42
46 47 47 46 47 47 47 47 45 45 45 45 44 44 42 41 39 38 39 39 39 40 39 39 38 38 38 38 38 38 39 39 39 39 39 39 39 40 41 42 42 42 42
Wind_Direction
236 238 239 237 235 235 236 235 234 236 242 248 251 257 263 272 280 289 298 304 307 309 313 314 315 316 317 316 317 319 318 316 315 315 315 315 315 315 314 314 313 313 314
238 237 238 237 237 237 238 239 241 243 248 251 254 258 264 271 278 286 293 297 299 302 306 308 310 311 312 312 313 315 315 315 314 314 313 313 313 313 313 312 311 311 311
238 238 238 239 239 240 241 242 243 247 252 255 257 261 266 270 275 282 288 291 295 299 301 303 303 305 305 306 308 310 312 312 311 311 312 312 312 312 311 310 310 310 310
238 237 238 239 240 241 242 243 245 248 252 256 258 261 265 269 274 279 285 289 292 295 297 299 301 301 301 301 303 304 306 308 309 309 310 310 310 310 310 309 309 310 309
238 239 240 240 241 242 243 244 246 248 252 257 259 261 264 267 272 277 283 288 290 293 296 298 299 299 300 300 300 301 302 304 307 307 308 308 309 309 310 310 310 309 309
239 239 240 241 242 242 243 244 245 247 251 255 258 261 264 267 271 275 280 286 289 290 293 295 297 298 299 299 299 300 300 301 304 305 306 306 307 307 308 308 308 308 309
239 239 239 241 242 243 243 244 246 247 250 253 257 260 263 266 270 274 278 283 287 289 291 292 294 295 295 296 297 298 299 300 301 303 304 304 305 305 306 306 307 307 307
239 240 240 242 243 243 244 245 247 248 249 252 255 258 262 265 268 272 276 281 285 287 290 291 293 294 294 294 295 295 297 298 300 301 302 303 304 304 304 305 305 305 306
239 240 241 242 244 245 246 246 247 248 250 252 254 257 260 263 266 269 274 279 283 286 289 291 292 293 293 293 293 294 295 297 299 301 302 303 303 303 303 304 304 304 305
239 240 242 242 243 245 246 247 247 248 250 253 255 257 259 262 265 268 272 277 281 284 287 289 290 291 292 292 293 293 294 296 298 300 301 301 302 303 303 303 303 303 304
239 240 242 243 244 244 246 247 248 249 251 253 255 258 260 261 264 267 271 276 279 282 285 287 288 288 289 290 291 292 294 295 297 299 300 300 301 301 301 302 302 302 303
240 241 242 243 244 245 246 247 248 249 250 253 255 257 260 262 264 267 270 274 277 280 283 285 287 287 287 289 290 291 293 295 296 298 299 299 300 300 301 301 301 301 302
239 240 241 243 243 245 246 247 248 249 250 252 254 256 258 260 262 265 268 271 275 278 281 283 285 286 286 287 288 290 292 294 296 298 299 300 300 301 301 301 301 301 302
239 240 240 242 243 244 245 247 249 249 250 252 253 255 257 259 261 264 267 270 273 277 279 281 283 284 285 287 288 290 291 292 294 296 298 299 300 300 300 301 301 301 302
239 240 241 242 243 244 245 246 247 249 250 252 253 254 256 258 260 263 265 269 272 275 277 280 282 282 284 285 287 288 290 292 293 296 297 298 299 299 300 301 301 301 302
239 240 241 242 242 243 245 245 247 248 250 252 253 254 255 257 259 262 265 268 271 273 275 277 279 281 283 284 285 287 289 291 293 296 297 298 298 299 300 301 301 302 302
239 240 240 241 242 243 244 245 246 248 250 252 253 254 255 257 259 261 264 267 269 271 273 275 277 279 280 282 284 285 288 291 293 295 297 298 298 299 300 301 301 302 302
239 239 240 240 241 242 244 244 245 247 249 251 252 253 255 257 259 260 263 266 269 270 271 273 275 276 278 280 283 285 288 291 294 296 297 298 299 299 299 300 301 302 303
238 238 239 240 241 242 243 244 245 246 248 250 251 253 255 256 258 259 262 265 268 270 270 271 273 275 277 280 282 285 288 291 294 296 296 297 298 299 299 300 302 303 304
237 237 238 239 241 242 243 244 245 246 247 249 251 253 255 256 257 259 262 265 267 268 270 270 271 274 276 279 281 285 288 291 293 295 297 297 298 299 300 301 302 303 304
237 238 238 239 241 242 242 244 245 247 247 249 251 252 254 254 256 258 261 264 265 267 269 270 271 273 275 278 281 284 287 290 292 294 296 297 298 298 300 301 302 303 304
238 237 237 239 240 242 243 243 244 245 246 248 250 251 253 253 255 258 261 262 264 266 267 269 272 273 275 278 281 283 286 288 290 293 294 296 297 299 300 301 301 303 304
238 238 237 238 239 241 242 244 244 244 245 246 248 251 253 253 255 257 259 261 263 265 268 269 271 274 276 278 280 283 285 287 289 291 293 295 296 298 300 301 302 303 303
238 239 239 240 240 240 241 243 244 245 247 248 248 250 251 252 254 256 258 260 262 265 267 269 272 275 276 279 281 283 285 286 288 290 292 294 296 297 299 300 302 303 303
239 240 240 241 240 240 241 242 244 245 246 247 249 249 250 252 253 255 256 259 263 265 267 270 272 274 277 279 281 282 284 286 287 289 291 293 295 297 298 300 301 303 303
240 241 241 241 241 241 242 242 244 246 246 247 249 249 250 251 252 255 257 260 263 265 266 268 272 274 277 278 280 282 283 285 286 289 291 292 294 296 298 299 301 302 303